WBANNO,USDM_WEEK,LONGITUDE,LATITUDE,SMVWC_5_CM_MEAN,SMANOM_5_CM_MEAN,SMPERC_5_CM_30COUNTS,SMPERC_5_CM_70COUNTS,SMVWC_10_CM_MEAN,SMANOM_10_CM_MEAN,SMPERC_10_CM_30COUNTS,SMPERC_10_CM_70COUNTS,SMVWC_20_CM_MEAN,SMANOM_20_CM_MEAN,SMPERC_20_CM_30COUNTS,SMPERC_20_CM_70COUNTS,SMVWC_50_CM_MEAN,SMANOM_50_CM_MEAN,SMPERC_50_CM_30COUNTS,SMPERC_50_CM_70COUNTS,SMVWC_100_CM_MEAN,SMANOM_100_CM_MEAN,SMPERC_100_CM_30COUNTS,SMPERC_100_CM_70COUNTS,SMVWC_TOP_CM_MEAN,SMANOM_TOP_CM_MEAN,SMPERC_TOP_CM_30COUNTS,SMPERC_TOP_CM_70COUNTS,SMVWC_COLUMN_CM_MEAN,SMANOM_COLUMN_CM_MEAN,SMPERC_COLUMN_CM_30COUNTS,SMPERC_COLUMN_CM_70COUNTS
94085,20100618,-100.35,44.02,,,,,,,,,,,,,,,,,,,,,,,,,,,,
94085,20100619,-100.35,44.02,,,,,,,,,,,,,,,,,,,,,,,,,,,,
94085,20100620,-100.35,44.02,,,,,,,,,,,,,,,,,,,,,,,,,,,,
94085,20100621,-100.35,44.02,,,,,,,,,,,,,,,,,,,,,,,,,,,,
94085,20100622,-100.35,44.02,,,,,,,,,,,,,,,,,,,,,,,,,,,,
94085,20100623,-100.35,44.02,,,,,,,,,,,,,,,,,,,,,,,,,,,,
94085,20100624,-100.35,44.02,0.451,0.84,0,1,0.478,0.95,0,1,0.531,0.97,0,1,0.495,0.6,0,1,0.523,-0.05,0.019,0.026,0.464,0.92,0,1,0.496,0.93,0,1
94085,20100625,-100.35,44.02,0.454,0.83,0,1,0.48,0.96,0,1,0.534,0.98,0,1,0.497,0.61,0,1,0.525,0,0.012,0.048,0.467,0.92,0,1,0.498,0.94,0,1
94085,20100626,-100.35,44.02,0.458,0.81,0,1,0.483,0.97,0,1,0.535,0.99,0,1,0.501,0.64,0,1,0.526,0.02,0.012,0.06,0.47,0.93,0,1,0.501,0.95,0,1
94085,20100627,-100.35,44.02,0.461,0.8,0,1,0.485,0.97,0,1,0.538,1,0,1,0.503,0.66,0,1,0.527,0.04,0.012,0.065,0.473,0.92,0,1,0.503,0.95,0,1
94085,20100628,-100.35,44.02,0.461,0.77,0,1,0.486,0.96,0,1,0.539,0.99,0,1,0.503,0.67,0,1,0.529,0.08,0.012,0.167,0.473,0.91,0,1,0.503,0.95,0,1
94085,20100629,-100.35,44.02,0.456,0.73,0,1,0.484,0.95,0,1,0.538,0.98,0,1,0.5,0.66,0,1,0.528,0.08,0.012,0.155,0.47,0.88,0,1,0.501,0.93,0,1
94085,20100630,-100.35,44.02,0.45,0.7,0,1,0.482,0.93,0,1,0.539,0.98,0,1,0.498,0.66,0,1,0.529,0.1,0.006,0.155,0.466,0.85,0,1,0.5,0.92,0,1
94085,20100701,-100.35,44.02,0.445,0.67,0,1,0.479,0.91,0,1,0.538,0.97,0,1,0.496,0.66,0,1,0.529,0.11,0.006,0.155,0.462,0.82,0,1,0.497,0.9,0,1
94085,20100702,-100.35,44.02,0.438,0.64,0,1,0.477,0.89,0,1,0.536,0.96,0,1,0.493,0.67,0,1,0.531,0.14,0.006,0.238,0.457,0.79,0,1,0.495,0.88,0,1
94085,20100703,-100.35,44.02,0.43,0.61,0,1,0.474,0.87,0,1,0.534,0.95,0,1,0.492,0.67,0,1,0.532,0.18,0.006,0.315,0.452,0.76,0,1,0.492,0.86,0,1
94085,20100704,-100.35,44.02,0.427,0.59,0,1,0.473,0.86,0,1,0.531,0.93,0,1,0.491,0.68,0,1,0.534,0.21,0,0.339,0.45,0.74,0,1,0.491,0.84,0,1
94085,20100705,-100.35,44.02,0.427,0.6,0,1,0.473,0.85,0,1,0.53,0.93,0,1,0.491,0.7,0,1,0.534,0.21,0,0.262,0.45,0.74,0,1,0.491,0.83,0,1
94085,20100706,-100.35,44.02,0.427,0.61,0,1,0.473,0.85,0,1,0.528,0.92,0,1,0.491,0.72,0,1,0.535,0.23,0,0.315,0.45,0.73,0,1,0.491,0.82,0,1
94085,20100707,-100.35,44.02,0.428,0.63,0,1,0.473,0.84,0,1,0.527,0.91,0,1,0.491,0.74,0,1,0.538,0.3,0,0.458,0.45,0.74,0,1,0.491,0.82,0,1
94085,20100708,-100.35,44.02,0.432,0.66,0,1,0.473,0.84,0,1,0.526,0.92,0,1,0.492,0.77,0,1,0.54,0.34,0,0.565,0.453,0.75,0,1,0.493,0.82,0,1
94085,20100709,-100.35,44.02,0.437,0.7,0,1,0.473,0.84,0,1,0.526,0.92,0,1,0.492,0.79,0,1,0.539,0.33,0,0.476,0.455,0.77,0,1,0.494,0.82,0,1
94085,20100710,-100.35,44.02,0.441,0.73,0,1,0.474,0.85,0,1,0.527,0.93,0,1,0.492,0.81,0,1,0.538,0.31,0,0.399,0.457,0.79,0,1,0.494,0.83,0,1
94085,20100711,-100.35,44.02,0.439,0.75,0,1,0.473,0.85,0,1,0.527,0.94,0,1,0.491,0.84,0,1,0.538,0.31,0,0.387,0.456,0.79,0,1,0.494,0.82,0,1
94085,20100712,-100.35,44.02,0.433,0.73,0,1,0.47,0.83,0,1,0.527,0.94,0,1,0.49,0.86,0,1,0.537,0.29,0,0.363,0.451,0.77,0,1,0.491,0.81,0,1
94085,20100713,-100.35,44.02,0.426,0.72,0,1,0.467,0.82,0,1,0.526,0.95,0,1,0.488,0.88,0,1,0.536,0.27,0,0.31,0.447,0.76,0,1,0.489,0.79,0,1
94085,20100714,-100.35,44.02,0.418,0.69,0,1,0.465,0.8,0,1,0.525,0.95,0,1,0.487,0.91,0,1,0.535,0.24,0,0.208,0.442,0.74,0,1,0.486,0.78,0,1
94085,20100715,-100.35,44.02,0.405,0.64,0,1,0.46,0.78,0,1,0.523,0.95,0,1,0.484,0.94,0,1,0.535,0.24,0,0.173,0.433,0.7,0,1,0.482,0.75,0,1
94085,20100716,-100.35,44.02,0.391,0.58,0,1,0.455,0.75,0,1,0.522,0.95,0,1,0.484,0.98,0,1,0.536,0.27,0,0.286,0.423,0.65,0,1,0.478,0.73,0,1
94085,20100717,-100.35,44.02,0.377,0.52,0,0.929,0.448,0.71,0,1,0.521,0.95,0,1,0.482,1,0,1,0.537,0.3,0,0.357,0.413,0.6,0,0.97,0.473,0.71,0,1
94085,20100718,-100.35,44.02,0.362,0.45,0,0.786,0.44,0.66,0,0.952,0.52,0.95,0,1,0.479,0.98,0,1,0.538,0.33,0,0.435,0.401,0.54,0,0.833,0.468,0.67,0,1
94085,20100719,-100.35,44.02,0.348,0.38,0,0.667,0.432,0.61,0,0.827,0.517,0.94,0,1,0.477,0.94,0,1,0.539,0.37,0,0.5,0.39,0.49,0,0.714,0.463,0.64,0,1
94085,20100720,-100.35,44.02,0.34,0.35,0,0.655,0.429,0.58,0,0.827,0.514,0.92,0,1,0.475,0.89,0,1,0.54,0.39,0,0.548,0.385,0.47,0,0.714,0.46,0.62,0,1
94085,20100721,-100.35,44.02,0.333,0.32,0,0.613,0.425,0.55,0,0.827,0.511,0.9,0,1,0.473,0.83,0,1,0.541,0.42,0,0.613,0.379,0.44,0,0.714,0.457,0.6,0,1
94085,20100722,-100.35,44.02,0.337,0.33,0,0.554,0.427,0.54,0,0.827,0.51,0.9,0,1,0.473,0.77,0,1,0.542,0.44,0,0.661,0.382,0.45,0,0.714,0.458,0.61,0,1
94085,20100723,-100.35,44.02,0.348,0.39,0,0.554,0.432,0.55,0,0.827,0.51,0.9,0,1,0.473,0.71,0,1,0.543,0.46,0,0.673,0.39,0.49,0,0.714,0.461,0.64,0,1
94085,20100724,-100.35,44.02,0.364,0.46,0,0.625,0.441,0.59,0,0.827,0.512,0.91,0,1,0.476,0.68,0,1,0.543,0.48,0,0.726,0.402,0.55,0,0.744,0.467,0.68,0,1
94085,20100725,-100.35,44.02,0.383,0.56,0,0.768,0.452,0.64,0,0.875,0.513,0.92,0,1,0.48,0.7,0,1,0.544,0.49,0,0.75,0.417,0.64,0,0.881,0.474,0.74,0,1
94085,20100726,-100.35,44.02,0.4,0.67,0,0.887,0.463,0.7,0,1,0.516,0.93,0,1,0.483,0.71,0,1,0.544,0.5,0,0.804,0.431,0.73,0,1,0.481,0.8,0,1
94085,20100727,-100.35,44.02,0.411,0.73,0,0.899,0.468,0.74,0,1,0.519,0.96,0,1,0.485,0.73,0,1,0.545,0.52,0,0.875,0.44,0.79,0,1,0.486,0.84,0,1
94085,20100728,-100.35,44.02,0.419,0.79,0,0.94,0.474,0.78,0,1,0.521,0.98,0,1,0.487,0.74,0,1,0.544,0.51,0,0.845,0.446,0.84,0,1,0.489,0.88,0,1
94085,20100729,-100.35,44.02,0.417,0.79,0,1,0.473,0.79,0,1,0.522,0.99,0,1,0.488,0.75,0,1,0.543,0.48,0,0.774,0.445,0.86,0,1,0.488,0.89,0,1
94085,20100730,-100.35,44.02,0.407,0.76,0,1,0.47,0.8,0,1,0.522,1,0,1,0.488,0.75,0,1,0.542,0.46,0,0.732,0.438,0.84,0,1,0.486,0.89,0,1
94085,20100731,-100.35,44.02,0.395,0.7,0,1,0.464,0.79,0,1,0.52,1,0,1,0.486,0.73,0,1,0.541,0.45,0,0.702,0.429,0.81,0,1,0.481,0.87,0,1
94085,20100801,-100.35,44.02,0.38,0.63,0,0.976,0.456,0.77,0,1,0.518,1,0,1,0.482,0.7,0,1,0.541,0.46,0,0.69,0.418,0.75,0,1,0.475,0.84,0,1
94085,20100802,-100.35,44.02,0.364,0.54,0,0.833,0.448,0.74,0,1,0.516,1.01,0,1,0.48,0.69,0,1,0.543,0.49,0,0.714,0.406,0.68,0,1,0.47,0.81,0,1
94085,20100803,-100.35,44.02,0.349,0.45,0,0.69,0.439,0.7,0,1,0.514,1.01,0,1,0.479,0.69,0,1,0.544,0.52,0,0.738,0.394,0.59,0,0.899,0.465,0.77,0,1
94085,20100804,-100.35,44.02,0.349,0.44,0,0.625,0.439,0.72,0,1,0.515,1.03,0,1,0.481,0.7,0,1,0.545,0.54,0,0.786,0.394,0.59,0,0.833,0.466,0.79,0,1
94085,20100805,-100.35,44.02,0.361,0.49,0,0.625,0.443,0.77,0,1,0.517,1.06,0,1,0.484,0.72,0,1,0.546,0.54,0,0.821,0.402,0.64,0,0.833,0.47,0.83,0,1
94085,20100806,-100.35,44.02,0.371,0.54,0,0.625,0.448,0.82,0,1,0.518,1.08,0,1,0.485,0.73,0,1,0.545,0.53,0,0.839,0.41,0.69,0,0.833,0.473,0.86,0,1
94085,20100807,-100.35,44.02,0.379,0.57,0,0.625,0.452,0.87,0,1,0.519,1.11,0,1,0.486,0.74,0,1,0.545,0.52,0,0.851,0.416,0.72,0,0.833,0.476,0.89,0,1
94085,20100808,-100.35,44.02,0.386,0.6,0,0.649,0.456,0.93,0,1,0.52,1.13,0,1,0.487,0.76,0,1,0.543,0.49,0,0.839,0.421,0.76,0,0.833,0.479,0.92,0,1
94085,20100809,-100.35,44.02,0.392,0.62,0,0.786,0.46,0.98,0,1,0.521,1.15,0,1,0.489,0.78,0,1,0.54,0.43,0,0.744,0.426,0.79,0,0.833,0.48,0.95,0,1
94085,20100810,-100.35,44.02,0.397,0.64,0,0.81,0.465,1.05,0,1,0.522,1.17,0,1,0.49,0.79,0,1,0.537,0.37,0,0.667,0.431,0.83,0,0.935,0.482,0.98,0,1
94085,20100811,-100.35,44.02,0.392,0.6,0,0.863,0.462,1.07,0,1,0.52,1.17,0,1,0.488,0.78,0,1,0.535,0.33,0,0.601,0.427,0.81,0,1,0.48,0.98,0,1
94085,20100812,-100.35,44.02,0.376,0.5,0,0.726,0.454,1.04,0,1,0.517,1.16,0,1,0.485,0.77,0,1,0.535,0.33,0,0.613,0.415,0.73,0,1,0.473,0.95,0,1
94085,20100813,-100.35,44.02,0.361,0.41,0,0.583,0.446,1,0,1,0.514,1.14,0,1,0.483,0.76,0,1,0.535,0.34,0,0.613,0.404,0.65,0,1,0.468,0.91,0,1
94085,20100814,-100.35,44.02,0.347,0.33,0,0.44,0.436,0.95,0,1,0.51,1.12,0,1,0.481,0.75,0,1,0.536,0.36,0,0.619,0.392,0.57,0,0.881,0.462,0.88,0,1
94085,20100815,-100.35,44.02,0.335,0.25,0,0.298,0.425,0.87,0,1,0.506,1.09,0,1,0.479,0.74,0,1,0.538,0.4,0,0.667,0.38,0.49,0,0.738,0.457,0.84,0,1
94085,20100816,-100.35,44.02,0.324,0.18,0,0.161,0.414,0.78,0,0.946,0.502,1.06,0,1,0.476,0.72,0,1,0.54,0.44,0,0.762,0.369,0.4,0,0.595,0.451,0.79,0,1
94085,20100817,-100.35,44.02,0.314,0.11,0,0.137,0.402,0.68,0,0.804,0.498,1.03,0,1,0.473,0.71,0,1,0.543,0.48,0,0.833,0.358,0.31,0,0.452,0.446,0.74,0,1
94085,20100818,-100.35,44.02,0.301,0.02,0,0.006,0.389,0.55,0,0.661,0.493,1,0,1,0.47,0.69,0,1,0.545,0.53,0,0.917,0.345,0.2,0,0.31,0.44,0.68,0,1
94085,20100819,-100.35,44.02,0.289,-0.06,0,0,0.377,0.42,0,0.518,0.489,0.97,0,1,0.467,0.67,0,1,0.546,0.54,0,0.923,0.333,0.1,0,0.167,0.434,0.62,0,0.988
94085,20100820,-100.35,44.02,0.278,-0.14,0,0,0.366,0.3,0,0.375,0.484,0.94,0,1,0.465,0.65,0,1,0.545,0.52,0,0.911,0.322,0.01,0,0.024,0.427,0.56,0,0.869
94085,20100821,-100.35,44.02,0.267,-0.21,0.024,0,0.356,0.2,0,0.232,0.481,0.91,0,1,0.462,0.64,0,1,0.542,0.46,0,0.857,0.311,-0.08,0,0,0.421,0.5,0,0.726
94085,20100822,-100.35,44.02,0.257,-0.27,0.119,0,0.347,0.1,0,0.089,0.478,0.89,0,1,0.459,0.62,0,1,0.54,0.41,0,0.792,0.302,-0.15,0,0,0.416,0.45,0,0.583
94085,20100823,-100.35,44.02,0.246,-0.33,0.262,0,0.338,0.01,0,0,0.474,0.86,0,1,0.456,0.61,0,1,0.537,0.38,0,0.726,0.292,-0.21,0.03,0,0.411,0.39,0,0.44
94085,20100824,-100.35,44.02,0.235,-0.39,0.405,0,0.331,-0.06,0,0,0.471,0.82,0,1,0.453,0.59,0,1,0.534,0.32,0,0.643,0.283,-0.27,0.155,0,0.405,0.34,0,0.298
94085,20100825,-100.35,44.02,0.224,-0.45,0.548,0,0.323,-0.13,0.018,0,0.468,0.78,0,1,0.449,0.57,0,1,0.531,0.26,0,0.524,0.274,-0.33,0.298,0,0.399,0.28,0,0.155
94085,20100826,-100.35,44.02,0.214,-0.5,0.69,0,0.317,-0.19,0.083,0,0.464,0.74,0,1,0.446,0.55,0,1,0.528,0.21,0,0.44,0.265,-0.39,0.44,0,0.394,0.23,0,0.024
94085,20100827,-100.35,44.02,0.204,-0.55,0.833,0,0.311,-0.25,0.161,0,0.461,0.69,0,1,0.442,0.53,0,1,0.526,0.18,0,0.375,0.257,-0.44,0.583,0,0.389,0.18,0,0
94085,20100828,-100.35,44.02,0.194,-0.59,0.952,0,0.306,-0.3,0.304,0,0.457,0.65,0,1,0.438,0.51,0,1,0.525,0.16,0,0.31,0.25,-0.48,0.726,0,0.384,0.14,0,0
94085,20100829,-100.35,44.02,0.185,-0.63,1,0,0.301,-0.34,0.446,0,0.454,0.61,0,1,0.434,0.49,0,1,0.524,0.14,0,0.25,0.243,-0.53,0.869,0,0.38,0.09,0,0
94085,20100830,-100.35,44.02,0.177,-0.66,1,0,0.298,-0.38,0.589,0,0.452,0.58,0,1,0.43,0.47,0,1,0.521,0.1,0,0.173,0.237,-0.57,0.982,0,0.376,0.05,0,0
94085,20100831,-100.35,44.02,0.17,-0.69,1,0,0.294,-0.41,0.732,0,0.45,0.55,0,1,0.427,0.45,0,1,0.52,0.08,0,0.119,0.232,-0.6,1,0,0.372,0.01,0,0
94085,20100901,-100.35,44.02,0.163,-0.72,1,0,0.291,-0.45,0.857,0,0.447,0.52,0,1,0.424,0.43,0,1,0.519,0.06,0,0.095,0.227,-0.63,1,0,0.369,-0.03,0,0
94085,20100902,-100.35,44.02,0.157,-0.74,1,0,0.288,-0.48,0.935,0,0.444,0.49,0,0.952,0.42,0.41,0,1,0.518,0.06,0,0.065,0.223,-0.66,1,0,0.365,-0.06,0,0
94085,20100903,-100.35,44.02,0.152,-0.77,1,0,0.284,-0.51,1,0,0.44,0.46,0,0.833,0.417,0.39,0,1,0.517,0.05,0,0.024,0.218,-0.7,1,0,0.362,-0.1,0,0
94085,20100904,-100.35,44.02,0.146,-0.8,1,0,0.28,-0.54,1,0,0.437,0.43,0,0.714,0.414,0.37,0,0.994,0.517,0.05,0,0.054,0.213,-0.73,1,0,0.359,-0.13,0,0
94085,20100905,-100.35,44.02,0.141,-0.82,1,0,0.277,-0.56,1,0,0.433,0.4,0,0.589,0.411,0.35,0,0.97,0.517,0.06,0,0.113,0.209,-0.75,1,0,0.356,-0.16,0,0
94085,20100906,-100.35,44.02,0.137,-0.83,1,0,0.274,-0.56,1,0,0.429,0.37,0,0.488,0.408,0.33,0,0.905,0.52,0.09,0,0.19,0.206,-0.77,1,0,0.354,-0.17,0,0
94085,20100907,-100.35,44.02,0.135,-0.84,1,0,0.272,-0.57,1,0,0.425,0.34,0,0.357,0.405,0.31,0,0.827,0.521,0.11,0,0.232,0.203,-0.77,1,0,0.351,-0.18,0,0
94085,20100908,-100.35,44.02,0.134,-0.83,1,0,0.27,-0.56,1,0,0.422,0.32,0,0.214,0.402,0.3,0,0.75,0.521,0.12,0,0.232,0.202,-0.76,1,0,0.35,-0.19,0,0
94085,20100909,-100.35,44.02,0.134,-0.81,1,0,0.268,-0.55,1,0,0.419,0.3,0,0.119,0.4,0.28,0,0.607,0.521,0.12,0,0.238,0.201,-0.74,1,0,0.348,-0.19,0,0
94085,20100910,-100.35,44.02,0.143,-0.74,0.97,0.03,0.269,-0.51,0.97,0,0.417,0.3,0,0.131,0.398,0.27,0,0.494,0.522,0.13,0,0.333,0.206,-0.67,0.97,0.03,0.35,-0.17,0,0.03
94085,20100911,-100.35,44.02,0.176,-0.51,0.827,0.173,0.277,-0.41,0.827,0,0.42,0.33,0,0.25,0.398,0.27,0,0.44,0.523,0.16,0,0.435,0.227,-0.49,0.827,0.173,0.359,-0.07,0,0.173
94085,20100912,-100.35,44.02,0.204,-0.32,0.685,0.304,0.284,-0.32,0.685,0,0.421,0.35,0,0.375,0.397,0.27,0,0.417,0.522,0.15,0,0.44,0.244,-0.33,0.685,0.19,0.366,0.01,0,0.292
94085,20100913,-100.35,44.02,0.231,-0.15,0.542,0.387,0.29,-0.25,0.542,0,0.422,0.37,0,0.476,0.397,0.27,0,0.435,0.519,0.12,0,0.369,0.261,-0.19,0.542,0.19,0.372,0.08,0,0.327
94085,20100914,-100.35,44.02,0.254,0.01,0.399,0.387,0.296,-0.18,0.399,0,0.423,0.4,0,0.607,0.396,0.27,0,0.482,0.516,0.09,0,0.327,0.275,-0.06,0.399,0.19,0.377,0.14,0,0.327
94085,20100915,-100.35,44.02,0.276,0.15,0.256,0.399,0.303,-0.12,0.256,0,0.426,0.44,0,0.75,0.396,0.27,0,0.56,0.515,0.08,0,0.327,0.289,0.05,0.256,0.202,0.383,0.21,0,0.339
94085,20100916,-100.35,44.02,0.306,0.35,0.113,0.542,0.313,-0.01,0.113,0,0.431,0.5,0,0.893,0.396,0.28,0,0.702,0.514,0.08,0,0.321,0.31,0.21,0.113,0.315,0.392,0.31,0,0.482
94085,20100917,-100.35,44.02,0.328,0.49,0,0.655,0.32,0.06,0,0,0.434,0.55,0,1,0.395,0.28,0,0.815,0.513,0.06,0,0.25,0.324,0.32,0,0.429,0.398,0.38,0,0.595
94085,20100918,-100.35,44.02,0.323,0.48,0,0.655,0.32,0.07,0,0,0.434,0.58,0,1,0.394,0.29,0,0.875,0.511,0.04,0,0.131,0.322,0.31,0,0.327,0.397,0.39,0,0.595
94085,20100919,-100.35,44.02,0.322,0.48,0,0.655,0.321,0.07,0,0,0.434,0.59,0,1,0.393,0.28,0,0.923,0.511,0.04,0,0.113,0.321,0.32,0,0.31,0.396,0.4,0,0.619
94085,20100920,-100.35,44.02,0.322,0.49,0,0.619,0.321,0.08,0,0,0.434,0.61,0,1,0.392,0.28,0,0.958,0.513,0.07,0,0.22,0.322,0.32,0,0.31,0.396,0.42,0,0.726
94085,20100921,-100.35,44.02,0.324,0.52,0,0.69,0.323,0.1,0,0,0.434,0.62,0,1,0.391,0.28,0,0.875,0.515,0.11,0,0.315,0.324,0.34,0,0.31,0.398,0.44,0,0.869
94085,20100922,-100.35,44.02,0.326,0.54,0,0.679,0.324,0.12,0,0,0.434,0.63,0,1,0.389,0.27,0,0.845,0.516,0.12,0,0.333,0.325,0.36,0,0.298,0.398,0.46,0,1
94085,20100923,-100.35,44.02,0.33,0.59,0,0.667,0.326,0.14,0,0.006,0.435,0.64,0,1,0.392,0.29,0,0.845,0.516,0.13,0,0.339,0.328,0.39,0,0.315,0.4,0.49,0,1
94085,20100924,-100.35,44.02,0.339,0.67,0,0.667,0.338,0.24,0,0.143,0.439,0.68,0,1,0.395,0.32,0,0.845,0.515,0.13,0,0.321,0.339,0.48,0,0.315,0.405,0.56,0,1
94085,20100925,-100.35,44.02,0.346,0.73,0,0.667,0.35,0.34,0,0.286,0.442,0.71,0,1,0.398,0.34,0,0.845,0.514,0.13,0,0.31,0.348,0.57,0,0.417,0.41,0.62,0,1
94085,20100926,-100.35,44.02,0.354,0.79,0,0.679,0.362,0.45,0,0.429,0.446,0.74,0,1,0.402,0.37,0,0.845,0.514,0.13,0,0.321,0.358,0.65,0,0.56,0.415,0.69,0,1
94085,20100927,-100.35,44.02,0.36,0.84,0,0.774,0.373,0.55,0,0.571,0.451,0.78,0,1,0.405,0.4,0,0.857,0.514,0.13,0,0.345,0.366,0.74,0,0.702,0.42,0.76,0,1
94085,20100928,-100.35,44.02,0.364,0.88,0,0.845,0.383,0.64,0,0.714,0.455,0.82,0,1,0.409,0.43,0,0.97,0.514,0.14,0,0.387,0.373,0.81,0,0.845,0.425,0.84,0,1
94085,20100929,-100.35,44.02,0.368,0.92,0,0.988,0.393,0.74,0,0.857,0.459,0.87,0,1,0.412,0.46,0,1,0.515,0.16,0,0.506,0.381,0.88,0,0.988,0.429,0.91,0,1
94085,20100930,-100.35,44.02,0.357,0.85,0,0.923,0.398,0.79,0,0.994,0.459,0.87,0,1,0.411,0.46,0,1,0.517,0.18,0,0.625,0.377,0.86,0,1,0.428,0.93,0,1
94085,20101001,-100.35,44.02,0.339,0.73,0,0.78,0.391,0.74,0,1,0.457,0.87,0,1,0.41,0.46,0,1,0.518,0.2,0,0.75,0.365,0.77,0,0.94,0.423,0.9,0,1
94085,20101002,-100.35,44.02,0.322,0.61,0,0.637,0.385,0.69,0,1,0.455,0.86,0,1,0.408,0.46,0,1,0.519,0.21,0,0.833,0.353,0.68,0,0.798,0.417,0.87,0,1
94085,20101003,-100.35,44.02,0.304,0.49,0,0.494,0.377,0.63,0,0.988,0.453,0.86,0,1,0.405,0.45,0,1,0.518,0.21,0,0.81,0.341,0.59,0,0.655,0.412,0.83,0,1
94085,20101004,-100.35,44.02,0.286,0.36,0,0.351,0.37,0.57,0,0.845,0.451,0.86,0,1,0.403,0.44,0,1,0.516,0.18,0,0.673,0.328,0.48,0,0.512,0.405,0.77,0,1
94085,20101005,-100.35,44.02,0.268,0.23,0,0.208,0.363,0.5,0,0.702,0.449,0.86,0,1,0.4,0.42,0,1,0.514,0.16,0,0.542,0.315,0.38,0,0.369,0.399,0.71,0,1
94085,20101006,-100.35,44.02,0.251,0.11,0,0.065,0.355,0.43,0,0.56,0.446,0.86,0,1,0.397,0.41,0,1,0.513,0.15,0,0.44,0.303,0.28,0,0.226,0.393,0.65,0,1
94085,20101007,-100.35,44.02,0.236,0,0.042,0,0.348,0.35,0,0.417,0.445,0.86,0,1,0.395,0.39,0,1,0.512,0.13,0,0.393,0.292,0.19,0,0.083,0.387,0.59,0,1
94085,20101008,-100.35,44.02,0.222,-0.09,0.155,0,0.342,0.28,0,0.274,0.443,0.87,0,1,0.392,0.38,0,1,0.509,0.1,0,0.274,0.282,0.1,0,0,0.382,0.53,0,1
94085,20101009,-100.35,44.02,0.21,-0.18,0.298,0,0.336,0.22,0,0.131,0.442,0.87,0,1,0.39,0.37,0,1,0.506,0.07,0,0.19,0.273,0.02,0,0,0.377,0.48,0,1
94085,20101010,-100.35,44.02,0.2,-0.25,0.44,0,0.331,0.16,0,0,0.441,0.87,0,1,0.388,0.36,0,1,0.504,0.05,0,0.137,0.265,-0.05,0,0,0.373,0.43,0,0.97
94085,20101011,-100.35,44.02,0.192,-0.31,0.583,0,0.325,0.1,0,0,0.441,0.87,0,1,0.386,0.36,0,1,0.503,0.04,0,0.137,0.259,-0.12,0,0,0.369,0.39,0,0.893
94085,20101012,-100.35,44.02,0.186,-0.35,0.726,0,0.32,0.04,0,0,0.44,0.86,0,1,0.386,0.36,0,1,0.501,0.02,0,0.131,0.253,-0.18,0.018,0,0.366,0.35,0,0.756
94085,20101013,-100.35,44.02,0.18,-0.4,0.869,0,0.315,-0.02,0,0,0.439,0.85,0,1,0.385,0.36,0,1,0.498,-0.01,0,0.095,0.248,-0.24,0.095,0,0.363,0.3,0,0.613
94085,20101014,-100.35,44.02,0.175,-0.43,0.97,0,0.31,-0.07,0,0,0.437,0.83,0,1,0.384,0.35,0,1,0.496,-0.03,0,0.018,0.243,-0.3,0.238,0,0.36,0.25,0,0.47
94085,20101015,-100.35,44.02,0.171,-0.47,1,0,0.305,-0.12,0,0,0.435,0.8,0,1,0.383,0.35,0,1,0.496,-0.03,0,0.024,0.238,-0.35,0.381,0,0.358,0.21,0,0.327
94085,20101016,-100.35,44.02,0.168,-0.5,1,0,0.3,-0.17,0,0,0.432,0.77,0,1,0.382,0.34,0,1,0.498,-0.01,0,0.101,0.234,-0.39,0.524,0,0.356,0.18,0,0.185
94085,20101017,-100.35,44.02,0.164,-0.53,1,0,0.295,-0.22,0,0,0.43,0.74,0,1,0.38,0.33,0,1,0.5,0.02,0,0.185,0.23,-0.43,0.667,0,0.354,0.15,0,0.071
94085,20101018,-100.35,44.02,0.16,-0.56,1,0,0.29,-0.26,0,0,0.427,0.7,0,1,0.379,0.32,0,1,0.5,0.03,0,0.208,0.225,-0.46,0.81,0,0.351,0.12,0,0.006
94085,20101019,-100.35,44.02,0.156,-0.59,1,0,0.285,-0.3,0,0,0.424,0.66,0,1,0.377,0.31,0,1,0.502,0.05,0,0.232,0.22,-0.5,0.935,0,0.349,0.08,0,0
94085,20101020,-100.35,44.02,0.151,-0.62,1,0,0.281,-0.34,0,0,0.422,0.63,0,1,0.375,0.29,0,1,0.502,0.06,0,0.232,0.216,-0.53,1,0,0.346,0.05,0,0
94085,20101021,-100.35,44.02,0.148,-0.64,1,0,0.278,-0.37,0.012,0,0.419,0.6,0,1,0.374,0.28,0,1,0.502,0.06,0,0.232,0.213,-0.56,1,0,0.344,0.03,0,0
94085,20101022,-100.35,44.02,0.145,-0.66,1,0,0.275,-0.4,0.137,0,0.417,0.57,0,0.988,0.373,0.27,0,1,0.503,0.07,0,0.286,0.21,-0.58,1,0,0.342,0.01,0,0
94085,20101023,-100.35,44.02,0.142,-0.68,1,0,0.272,-0.42,0.268,0,0.415,0.56,0,0.988,0.371,0.25,0,1,0.501,0.05,0,0.232,0.207,-0.6,1,0,0.34,-0.02,0,0
94085,20101024,-100.35,44.02,0.154,-0.6,0.94,0.048,0.275,-0.4,0.315,0.03,0.415,0.56,0,0.946,0.37,0.24,0,0.994,0.498,0.03,0,0.149,0.215,-0.54,0.94,0.036,0.343,0,0,0.042
94085,20101025,-100.35,44.02,0.189,-0.39,0.798,0.19,0.295,-0.23,0.315,0.173,0.419,0.59,0,0.946,0.373,0.26,0,0.994,0.496,0.01,0,0.125,0.242,-0.33,0.798,0.179,0.354,0.11,0,0.185
94085,20101026,-100.35,44.02,0.224,-0.17,0.655,0.333,0.315,-0.06,0.315,0.315,0.424,0.62,0,0.946,0.376,0.28,0,0.994,0.496,0.01,0,0.107,0.27,-0.13,0.655,0.321,0.367,0.22,0,0.327
94085,20101027,-100.35,44.02,0.257,0.03,0.512,0.476,0.335,0.1,0.315,0.458,0.428,0.66,0,0.946,0.38,0.31,0,0.994,0.495,0.01,0,0.107,0.296,0.06,0.512,0.464,0.379,0.33,0,0.47
94085,20101028,-100.35,44.02,0.29,0.22,0.369,0.619,0.353,0.25,0.304,0.601,0.432,0.69,0,0.946,0.383,0.33,0,0.994,0.496,0.02,0,0.107,0.322,0.24,0.369,0.607,0.391,0.43,0,0.613
94085,20101029,-100.35,44.02,0.324,0.43,0.226,0.762,0.373,0.42,0.179,0.744,0.436,0.73,0,0.958,0.387,0.35,0,0.994,0.495,0.01,0,0.036,0.349,0.43,0.226,0.75,0.403,0.53,0,0.756
94085,20101030,-100.35,44.02,0.358,0.63,0.083,0.905,0.393,0.58,0.048,0.887,0.439,0.76,0,0.958,0.391,0.38,0,0.994,0.494,0.01,0,0.006,0.376,0.62,0.083,0.893,0.415,0.64,0,0.899
94085,20101031,-100.35,44.02,0.376,0.73,0,1,0.407,0.7,0,1,0.442,0.78,0,1,0.393,0.4,0,1,0.494,0.01,0,0.006,0.391,0.72,0,1,0.422,0.69,0,1
94085,20101101,-100.35,44.02,0.371,0.7,0,1,0.404,0.68,0,1,0.44,0.77,0,1,0.393,0.39,0,1,0.495,0.01,0,0.006,0.388,0.68,0,1,0.421,0.67,0,1
94085,20101102,-100.35,44.02,0.366,0.65,0,1,0.401,0.65,0,1,0.439,0.76,0,1,0.392,0.39,0,1,0.494,0.01,0,0,0.383,0.63,0,1,0.418,0.65,0,1
94085,20101103,-100.35,44.02,0.362,0.62,0,1,0.399,0.64,0,1,0.438,0.76,0,1,0.391,0.38,0,1,0.494,0.01,0,0.018,0.381,0.59,0,1,0.417,0.63,0,1
94085,20101104,-100.35,44.02,0.357,0.59,0,1,0.398,0.62,0,1,0.437,0.76,0,1,0.39,0.38,0,1,0.493,0.01,0,0.018,0.378,0.55,0,1,0.415,0.61,0,1
94085,20101105,-100.35,44.02,0.35,0.54,0,0.923,0.395,0.59,0,1,0.437,0.76,0,1,0.389,0.37,0,1,0.491,-0.01,0,0.018,0.372,0.5,0,0.964,0.412,0.58,0,1
94085,20101106,-100.35,44.02,0.342,0.49,0,0.78,0.391,0.56,0,1,0.436,0.77,0,1,0.388,0.37,0,1,0.489,-0.03,0,0.018,0.367,0.45,0,0.821,0.409,0.56,0,0.97
94085,20101107,-100.35,44.02,0.335,0.44,0,0.637,0.388,0.53,0,1,0.435,0.77,0,1,0.388,0.36,0,1,0.489,-0.03,0,0.018,0.362,0.41,0,0.679,0.407,0.54,0,0.964
94085,20101108,-100.35,44.02,0.329,0.41,0,0.494,0.386,0.5,0,1,0.435,0.77,0,1,0.387,0.36,0,1,0.488,-0.03,0,0.018,0.358,0.38,0,0.536,0.405,0.53,0,0.964
94085,20101109,-100.35,44.02,0.323,0.37,0,0.351,0.384,0.48,0,0.982,0.434,0.78,0,1,0.386,0.35,0,1,0.488,-0.02,0,0.018,0.353,0.36,0,0.393,0.403,0.51,0,0.946
94085,20101110,-100.35,44.02,0.315,0.32,0,0.208,0.381,0.45,0,0.887,0.433,0.78,0,1,0.385,0.35,0,1,0.488,-0.02,0,0.024,0.348,0.33,0,0.25,0.401,0.49,0,0.815
94085,20101111,-100.35,44.02,0.308,0.28,0,0.065,0.378,0.42,0,0.762,0.433,0.79,0,1,0.385,0.34,0,1,0.489,-0.01,0,0.065,0.343,0.3,0,0.107,0.398,0.48,0,0.673
94085,20101112,-100.35,44.02,0.301,0.24,0,0,0.376,0.4,0,0.619,0.433,0.79,0,1,0.384,0.34,0,1,0.491,0.01,0,0.125,0.338,0.27,0,0,0.397,0.46,0,0.53
94085,20101113,-100.35,44.02,0.294,0.21,0,0,0.374,0.39,0,0.476,0.432,0.8,0,1,0.383,0.33,0,1,0.492,0.03,0,0.149,0.334,0.25,0,0,0.395,0.45,0,0.417
94085,20101114,-100.35,44.02,0.287,0.17,0,0,0.371,0.37,0,0.333,0.431,0.8,0,1,0.383,0.33,0,1,0.492,0.04,0,0.149,0.329,0.23,0,0,0.393,0.44,0,0.28
94085,20101115,-100.35,44.02,0.28,0.13,0,0,0.369,0.36,0,0.19,0.43,0.8,0,1,0.382,0.32,0,1,0.492,0.04,0,0.149,0.324,0.21,0,0,0.39,0.42,0,0.137
94085,20101116,-100.35,44.02,0.273,0.1,0,0,0.366,0.35,0,0.065,0.429,0.8,0,1,0.381,0.32,0,1,0.491,0.04,0,0.149,0.32,0.19,0,0,0.388,0.41,0,0.012
94085,20101117,-100.35,44.02,0.268,0.07,0,0,0.364,0.33,0,0.018,0.428,0.79,0,1,0.379,0.31,0,1,0.49,0.04,0,0.149,0.316,0.17,0,0,0.386,0.4,0,0
94085,20101118,-100.35,44.02,0.264,0.05,0,0,0.362,0.33,0,0,0.426,0.78,0,1,0.378,0.31,0,1,0.489,0.04,0,0.113,0.313,0.15,0,0,0.384,0.39,0,0
94085,20101119,-100.35,44.02,0.261,0.03,0,0,0.361,0.32,0,0,0.425,0.78,0,1,0.377,0.3,0,1,0.488,0.03,0,0.054,0.311,0.14,0,0,0.382,0.38,0,0
94085,20101120,-100.35,44.02,0.258,0.02,0,0,0.359,0.31,0,0,0.424,0.77,0,1,0.376,0.3,0,1,0.487,0.02,0,0.03,0.309,0.13,0,0,0.381,0.38,0,0
94085,20101121,-100.35,44.02,0.257,0.01,0,0,0.357,0.3,0,0,0.422,0.77,0,1,0.374,0.3,0,1,0.487,0.03,0,0.054,0.307,0.12,0,0,0.38,0.38,0,0
94085,20101122,-100.35,44.02,0.256,0.01,0,0,0.356,0.3,0,0,0.421,0.76,0,1,0.373,0.3,0,1,0.487,0.04,0,0.054,0.306,0.12,0,0,0.379,0.38,0,0
94085,20101123,-100.35,44.02,0.256,0,0,0,0.355,0.3,0,0,0.419,0.75,0,1,0.372,0.29,0,1,0.487,0.04,0,0.101,0.306,0.12,0,0,0.378,0.37,0,0
94085,20101124,-100.35,44.02,,,,,0.354,0.29,0,0,0.417,0.74,0,1,0.371,0.29,0,0.958,0.487,0.04,0,0.095,,,,,,,,
94085,20101125,-100.35,44.02,,,,,0.355,0.3,0,0.062,0.415,0.73,0,1,0.369,0.28,0,0.94,0.486,0.03,0,0.089,,,,,,,,
94085,20101126,-100.35,44.02,,,,,0.355,0.3,0,0.073,0.413,0.72,0,0.982,0.367,0.27,0,0.833,0.485,0.04,0,0.089,,,,,,,,
94085,20101127,-100.35,44.02,,,,,,,,,0.412,0.71,0,0.964,0.366,0.26,0,0.714,0.485,0.04,0,0.089,,,,,,,,
94085,20101128,-100.35,44.02,,,,,,,,,0.41,0.7,0,0.958,0.364,0.26,0,0.571,0.484,0.03,0,0.065,,,,,,,,